Location: ????? ??????
(37.8317°N, 23.8750°E)
Time: 13:44:10
(UTC+00:00)

ARGOS - Pass Details

Date: 20 January 2021
Orbit: 821 x 834 km, 98.4° (Epoch: 03 March)

Event Time Altitude Azimuth Distance (km) Brightness Sun altitude
Rises 17:26:28 0° 163° (SSE) 3,337 6.2 -21.9°
Reaches altitude 10° 17:28:47 10° 162° (SSE) 2,409 5.5 -22.3°
Maximum altitude 17:34:08 81° 75° (ENE) 835 3.0 -23.4°
Drops below altitude 10° 17:39:31 10° 349° (N) 2,429 5.6 -24.4°
Sets 17:41:52 0° 349° (N) 3,368 6.4 -24.9°
